カタログに戻る

STARLINK-2430

運用中通信VLEO
NORAD 48100·PAYLOAD·🇺🇸 United States

打ち上げ Apr 7, 2021 から Cape Canaveral Space Force Station

Loading…

次のパス (今後24時間)

TLE

最新Source: CelesTrak SupGP

元期: Sep 14, 2026, 20:06 UTC

1 48100C 21027J   26257.83798611 -.00007421  00000+0 -23859-3 0  2572
2 48100  53.1605 352.2308 0001157  80.8165 108.9630 15.31711672    12

AllMySatでSTARLINK-2430をリアルタイム追跡

Download on the App Store